Weather History for Thermal, CA

Change the Weather History Date:

Tuesday, March 25, 2014

  Actual Average Record
Temperature  
Mean Temperature 76 °F 66 °F  
Max Temperature 92 °F 83 °F 100 °F (1988)
Min Temperature 59 °F 49 °F 39 °F (2009)
Degree Days  
Heating Degree Days 0 2  
Month to date heating degree days 23 83  
Since 1 July heating degree days 812 1148  
Cooling Degree Days 11 3  
Month to date cooling degree days 85 44  
Year to date cooling degree days 95 56  
Growing Degree Days 26 (Base 50)    
Moisture  
Dew Point 43 °F    
Average Humidity 34    
Maximum Humidity 60    
Minimum Humidity 7    
Precipitation  
Precipitation 0.00 in 0.01 in 0.04 in (1998)
Month to date precipitation T 0.35  
Year to date precipitation 0.08 1.68  
Since 1 July precipitation 1.55 3.06  
Snow  
Snow 0.00 in - - ()
Month to date snowfall 0.0  
Year to date snowfall 0.0  
Since 1 July snowfall 0.0  
Snow Depth 0.00 in    
Sea Level Pressure  
Sea Level Pressure 29.77 in    
Wind  
Wind Speed 8 mph (NNW)    
Max Wind Speed 20 mph    
Max Gust Speed 24 mph    
Visibility 8 miles    
Events      
T = Trace of Precipitation, MM = Missing Value Source: NWS Daily Summary

Daily Weather History Graph

Daily Weather History Graph

Search for Another Location

Airport:

Trip Planner

Search our weather history database for the weather conditions in past years. The results will help you decide how hot, cold, wet, or windy it might be!

Date:

Astronomy

Mar. 25, 2014 Rise Set
Actual Time 6:41 AM PDT 7:00 PM PDT
Civil Twilight 6:16 AM PDT 7:25 PM PDT
Nautical Twilight 5:47 AM PDT 7:54 PM PDT
Astronomical Twilight 5:17 AM PDT 8:23 PM PDT
Moon 2:52 AM PDT (3/25) 1:49 PM PDT (3/25)
Length of Visible Light 13h 08m
Length of Day
12h 18m
Waning Crescent, 31% of the Moon is Illuminated
Mar 25
Waning Crescent
Mar 30
New
Apr 7
First Quarter
Apr 15
Full
Apr 22
Last Quarter

Hourly Weather History & Observations

Time (PDT) Temp. Dew Point Humidity Pressure Visibility Wind Dir Wind Speed Gust Speed Precip Events Conditions
12:52 AM 71.1 °F 48.9 °F 45% 29.90 in 10.0 mi NNW 12.7 mph - N/A   Clear
1:52 AM 69.1 °F 48.9 °F 49% 29.86 in 10.0 mi North 8.1 mph - N/A   Clear
2:52 AM 64.9 °F 48.0 °F 54% 29.84 in 9.0 mi NNW 4.6 mph - N/A   Clear
3:52 AM 61.0 °F 46.9 °F 60% 29.84 in 9.0 mi NNW 3.5 mph - N/A   Clear
4:52 AM 63.0 °F 46.9 °F 56% 29.83 in 9.0 mi NNW 6.9 mph - N/A   Clear
5:52 AM 60.1 °F 46.0 °F 60% 29.83 in 8.0 mi North 6.9 mph - N/A   Clear
6:52 AM 60.1 °F 46.0 °F 60% 29.83 in 7.0 mi North 6.9 mph - N/A   Clear
7:52 AM 64.0 °F 46.9 °F 54% 29.83 in 6.0 mi NNW 5.8 mph - N/A   Haze
8:52 AM 72.0 °F 46.0 °F 40% 29.84 in 9.0 mi NW 12.7 mph - N/A   Clear
9:52 AM 77.0 °F 46.0 °F 33% 29.84 in 8.0 mi NW 10.4 mph - N/A   Clear
10:52 AM 82.0 °F 41.0 °F 23% 29.83 in 10.0 mi Variable 4.6 mph - N/A   Clear
11:52 AM 84.0 °F 42.1 °F 23% 29.83 in 10.0 mi SE 8.1 mph - N/A   Clear
12:52 PM 84.9 °F 39.0 °F 20% 29.81 in 10.0 mi South 9.2 mph - N/A   Clear
1:52 PM 88.0 °F 35.1 °F 15% 29.75 in 10.0 mi Variable 6.9 mph - N/A   Clear
2:52 PM 90.0 °F 27.0 °F 10% 29.75 in 10.0 mi ENE 6.9 mph - N/A   Clear
3:52 PM 91.0 °F 19.9 °F 7% 29.69 in 10.0 mi Variable 5.8 mph - N/A   Clear
4:52 PM 90.0 °F 35.1 °F 14% 29.68 in 7.0 mi NNW 15.0 mph - N/A   Partly Cloudy
5:06 PM 88.0 °F 35.1 °F 15% 29.67 in 6.0 mi NNW 13.8 mph - N/A   Haze
5:52 PM 86.0 °F 37.0 °F 18% 29.66 in 10.0 mi NNW 17.3 mph - N/A   Clear
6:52 PM 77.0 °F 46.0 °F 33% 29.68 in 8.0 mi NNW 18.4 mph 26.5 mph N/A   Clear
7:52 PM 73.0 °F 46.9 °F 39% 29.68 in 10.0 mi NNW 17.3 mph 28.8 mph N/A   Clear
8:52 PM 73.0 °F 45.0 °F 37% 29.69 in 9.0 mi NW 20.7 mph 28.8 mph N/A   Clear
9:52 PM 70.0 °F 46.9 °F 44% 29.70 in 4.0 mi NNW 26.5 mph 39.1 mph N/A   Haze
10:33 PM 69.1 °F 46.9 °F 45% 29.70 in 7.0 mi NNW 21.9 mph 32.2 mph N/A   Scattered Clouds
10:52 PM 69.1 °F 46.9 °F 45% 29.71 in 6.0 mi NNW 26.5 mph 36.8 mph N/A   Haze
11:52 PM 68.0 °F 46.0 °F 45% 29.74 in 9.0 mi NW 18.4 mph - N/A   Clear